TimeAST,TemperatureF,Dew PointF,Humidity,Sea Level PressureIn,VisibilityMPH,Wind Direction,Wind SpeedMPH,Gust SpeedMPH,PrecipitationIn,Events,Conditions,WindDirDegrees,DateUTC
12:00 AM,77.0,73.4,89,29.86,6.2,SE,5.8,-,N/A,,Partly Cloudy,130,2012-11-13 04:00:00
1:00 AM,77.0,73.4,89,29.83,6.2,SSE,4.6,-,N/A,,Partly Cloudy,150,2012-11-13 05:00:00
2:00 AM,75,72,89,29.84,31,SE,3.5,,,,Scattered Clouds,130,2012-11-13 06:00:00
2:00 AM,75.2,71.6,89,29.83,6.2,SE,3.5,-,N/A,,Partly Cloudy,130,2012-11-13 06:00:00
3:00 AM,75.2,73.4,94,29.80,6.2,SE,3.5,-,N/A,,Partly Cloudy,140,2012-11-13 07:00:00
4:00 AM,73.4,71.6,94,29.80,6.2,Variable,1.2,-,N/A,,Partly Cloudy,0,2012-11-13 08:00:00
5:00 AM,74,72,93,29.79,31,SSE,2.3,,,,Scattered Clouds,150,2012-11-13 09:00:00
5:00 AM,73.4,71.6,94,29.77,6.2,SSE,2.3,-,N/A,,Partly Cloudy,150,2012-11-13 09:00:00
6:00 AM,73.4,73.4,100,29.80,6.2,SE,3.5,-,N/A,,Partly Cloudy,140,2012-11-13 10:00:00
7:00 AM,75.2,73.4,94,29.83,6.2,Variable,1.2,-,N/A,,Partly Cloudy,0,2012-11-13 11:00:00
8:00 AM,82,76,78,29.87,31,ESE,2.3,,,,Scattered Clouds,120,2012-11-13 12:00:00
8:00 AM,82.4,77.0,84,29.86,6.2,Variable,1.2,-,N/A,,Partly Cloudy,0,2012-11-13 12:00:00
9:00 AM,84.2,75.2,74,29.89,6.2,East,4.6,-,N/A,,Partly Cloudy,90,2012-11-13 13:00:00
10:00 AM,84.2,75.2,74,29.89,6.2,ENE,6.9,-,N/A,,Partly Cloudy,70,2012-11-13 14:00:00
11:00 AM,85,76,69,29.89,37,East,9.2,,,,Scattered Clouds,80,2012-11-13 15:00:00
11:00 AM,84.2,75.2,74,29.89,6.2,ENE,8.1,-,N/A,,Partly Cloudy,70,2012-11-13 15:00:00
12:00 PM,84.2,77.0,79,29.86,6.2,ENE,8.1,-,N/A,,Partly Cloudy,70,2012-11-13 16:00:00
12:41 PM,82.4,75.2,79,29.86,6.2,ENE,6.9,-,N/A,Thunderstorm,Thunderstorm,70,2012-11-13 16:41:00
1:00 PM,84.2,77.0,79,29.83,6.2,ENE,8.1,-,N/A,,Scattered Clouds,60,2012-11-13 17:00:00
2:00 PM,83,75,70,29.82,37,ENE,8.1,,,,Partly Cloudy,60,2012-11-13 18:00:00
2:00 PM,82.4,75.2,79,29.80,6.2,ENE,8.1,-,N/A,,Scattered Clouds,60,2012-11-13 18:00:00
3:00 PM,80.6,75.2,84,29.80,6.2,East,9.2,-,N/A,,Scattered Clouds,80,2012-11-13 19:00:00
4:00 PM,82.4,75.2,79,29.77,6.2,ENE,8.1,-,N/A,,Partly Cloudy,70,2012-11-13 20:00:00
5:00 PM,81,75,78,29.78,37,East,11.5,,,,Scattered Clouds,80,2012-11-13 21:00:00
5:00 PM,80.6,75.2,84,29.77,6.2,ENE,10.4,-,N/A,,Partly Cloudy,60,2012-11-13 21:00:00
6:00 PM,80.6,75.2,84,29.77,6.2,ENE,11.5,-,N/A,,Partly Cloudy,60,2012-11-13 22:00:00
7:00 PM,80.6,73.4,79,29.80,6.2,ENE,11.5,-,N/A,,Partly Cloudy,70,2012-11-13 23:00:00
8:00 PM,80,74,78,29.83,37,East,9.2,,,,Partly Cloudy,90,2012-11-14 00:00:00
8:00 PM,80.6,75.2,84,29.83,6.2,East,9.2,-,N/A,,Scattered Clouds,90,2012-11-14 00:00:00
9:00 PM,80.6,73.4,79,29.86,6.2,East,10.4,-,N/A,,Scattered Clouds,90,2012-11-14 01:00:00
10:00 PM,78.8,73.4,83,29.86,6.2,ESE,6.9,-,N/A,,Scattered Clouds,120,2012-11-14 02:00:00
11:00 PM,77.0,73.4,89,29.86,6.2,SE,4.6,-,N/A,,Scattered Clouds,140,2012-11-14 03:00:00